Flag for Albania Weather past 2 weeks in Tirana, Albania

Now
79 °F

Broken clouds.


Feels Like: 81 °F
Forecast: 66 / 80 °F
Wind: 3 mph from West

Location: Tirana Airport

Current Time: Jul 30, 2014 at 5:27:55 PM

Latest Report: Jul 30, 2014 at 4:50 PM


Visibility: N/A

Pressure: 29.77 "Hg

Humidity: 65%

Dew point: 66 °F

Location of TiranaLocation

Historic Weather in Tirana — Graph

°F

Tirana temperature yesterday

Maximum temperature yesterday: 88 °F (at 1:20 PM)
Minimum temperature yesterday: 64 °F (at 5:20 AM)
Average temperature yesterday: 75 °F

Past Weeks' High & Low Weather Summary

 TemperatureHumidityPressure
High91 °F (Jul 19, 1:50 PM)94% (Jul 15, 9:20 PM)29.95 "Hg (Jul 15, 9:20 PM)
Low59 °F (Jul 16, 2:50 AM)34% (Jul 19, 2:50 PM)29.71 "Hg (Jul 22, 3:50 PM)
Average76 °F69%29.87 "Hg
* Reported Jul 15 4:20 PM — Jul 30 4:20 PM, Tirana, Weather by CustomWeather, © 2014

Note: Actual official high and low records may vary slightly from our data, if they occured in-between our weather recording intervals... More about our weather records

Advertising

Tirana weather history for previous 24 hours

 ConditionsComfort  
Time TempWeatherWind HumidityBarometerVisibility
4:20 PM
Jul 30
81 °FScattered clouds.7 mph66%29.77 "HgN/A
3:50 PM79 °FBroken clouds.6 mph65%29.77 "HgN/A
3:20 PM81 °FBroken clouds.14 mph62%29.80 "HgN/A
2:50 PM81 °FPartly sunny.10 mph66%29.77 "HgN/A
2:20 PM84 °FPartly sunny.13 mph66%29.80 "HgN/A
1:50 PM88 °FPartly sunny.3 mph55%29.77 "HgN/A
1:20 PM88 °FPartly sunny.5 mph52%29.77 "HgN/A
12:50 PM86 °FBroken clouds.2 mph55%29.80 "HgN/A
12:20 PM86 °FPartly sunny.3 mph55%29.83 "HgN/A
11:50 AM84 °FScattered clouds.5 mph58%29.83 "HgN/A
11:20 AM84 °FScattered clouds.2 mph55%29.83 "HgN/A
10:50 AM82 °FScattered clouds.5 mph62%29.83 "HgN/A
10:20 AM79 °FPartly sunny.6 mph65%29.83 "HgN/A
9:50 AM79 °FScattered clouds.5 mph70%29.83 "HgN/A
9:20 AM77 °FPassing clouds.3 mph69%29.80 "HgN/A
8:50 AM77 °FPartly sunny.2 mph65%29.80 "HgN/A
8:20 AM75 °FSunny.No wind65%29.77 "Hg10 mi
7:50 AM75 °FPassing clouds.5 mph69%29.77 "HgN/A
7:20 AM72 °FSunny.7 mph83%29.77 "Hg10 mi
6:50 AM68 °FScattered clouds.6 mph88%29.77 "HgN/A
6:20 AM70 °FPassing clouds.3 mph83%29.80 "HgN/A
5:50 AM68 °FPassing clouds.6 mph88%29.83 "HgN/A
5:20 AM66 °FClear.2 mph94%29.83 "Hg10 mi
4:50 AM66 °FClear.3 mph94%29.80 "Hg10 mi
4:20 AM68 °FClear.2 mph88%29.80 "Hg10 mi
3:50 AM68 °FClear.2 mph88%29.80 "Hg10 mi
3:20 AM68 °FClear.3 mph88%29.80 "Hg10 mi
2:50 AM68 °FClear.3 mph88%29.83 "Hg10 mi
2:20 AM70 °FClear.No wind88%29.83 "Hg10 mi
1:50 AM70 °FClear.2 mph88%29.83 "Hg10 mi
1:20 AM70 °FClear.3 mph88%29.83 "Hg10 mi
12:50 AM70 °FClear.5 mph83%29.83 "Hg10 mi
12:20 AM70 °FClear.2 mph88%29.83 "Hg10 mi
11:50 PM
Jul 29
70 °FClear.3 mph88%29.83 "Hg10 mi
11:20 PM70 °FClear.3 mph88%29.83 "Hg10 mi
10:50 PM72 °FClear.2 mph83%29.83 "Hg10 mi
10:20 PM72 °FClear.3 mph83%29.83 "Hg10 mi
9:50 PM72 °FClear.No wind83%29.83 "Hg10 mi
9:20 PM73 °FClear.No wind74%29.83 "Hg10 mi
8:50 PM75 °FSunny.No wind69%29.83 "Hg10 mi
8:20 PM75 °FSunny.2 mph69%29.83 "Hg10 mi
7:50 PM77 °FSunny.2 mph65%29.83 "Hg10 mi
7:20 PM79 °FSunny.6 mph58%29.83 "Hg10 mi
6:50 PM79 °FSunny.5 mph58%29.83 "Hg10 mi
6:20 PM81 °FSunny.6 mph51%29.86 "Hg10 mi
5:50 PM82 °FSunny.7 mph51%29.86 "Hg10 mi
5:20 PM82 °FScattered clouds.7 mph51%29.86 "HgN/A
Weather by CustomWeather, © 2014

See weather overviewHow to use our weather pages